Regional Weather Roundup
Issued by NWS

Home | Current Version | Previous Version | Text Only | Print | Product List | Glossary Off
Versions: 1 2 3 4 5 6 7 8 9 10 11 12 13 14 15 16 17 18 19 20 21 22 23 24 25 26 27 28 29 30 31 32 33 34 35 36 37 38 39 40 41 42 43 44 45 46 47 48 49 50

328
ASUS44 KMEG 232110
RWRTN
TENNESSEE HOURLY STATE WEATHER ROUNDUP
NATIONAL WEATHER SERVICE MEMPHIS TN
400 PM CDT SAT JUL 23 2016

TNZ002-004-019-021-049-052-054-088>092-232200-
WEST TENNESSEE

CITY           SKY/WX    TMP DP  RH WIND       PRES   REMARKS
MEMPHIS INTL   PTSUNNY   87  71  58 S7        29.94F HX  93
NWS MEMPHIS      N/A     88 N/A N/A MISG        N/A
JACKSON        MOSUNNY   91  76  61 W9        29.94F HX 103
DYERSBURG      PTSUNNY   91  73  55 MISG      29.92F HX 100
UNION CITY     MOSUNNY   90  77  66 E5        29.93F HX 102
PARIS          PTSUNNY   88  73  62 CALM      29.96F HX  96
LEXINGTON      MOSUNNY   82  73  74 VRB7      29.95S
$$

TNZ008-025-027-028-033-062-065-066-232200-
NORTH MIDDLE TENNESSEE

CITY           SKY/WX    TMP DP  RH WIND       PRES   REMARKS
NASHVILLE      PTSUNNY   93  72  50 E9        29.95F HX 101
CLARKSVILLE    MOSUNNY   90  74  59 VRB5      29.95F HX  99
SMYRNA         CLOUDY    89  76  65 N6        29.96F HX 100
COOKEVILLE     PTSUNNY   93  75  55 N3        29.98S HX 104
CROSSVILLE     CLOUDY    79  71  76 N8        30.05R THUNDER
$$

TNZ061-075-076-078-094-096-097-232200-
SOUTH MIDDLE TENNESSEE

CITY           SKY/WX    TMP DP  RH WIND       PRES   REMARKS
FAYETTEVILLE   PTSUNNY   90  73  58 VRB7      29.96F HX  98
TULLAHOMA        N/A     95  68  41 VRB6      29.97F HX  99
WINCHESTER     SUNNY     84  70  61 E16       29.98F
MCMINNVILLE    SUNNY     88  75  66 E6        29.99F HX  97
COLUMBIA       SUNNY     88  79  74 N5        29.97R HX 102
SHELBYVILLE    MOSUNNY   93  75  55 N5        29.96F HX 104
$$

TNZ017-018-042-046-047-232200-
NORTHEAST TENNESSEE

CITY           SKY/WX    TMP DP  RH WIND       PRES   REMARKS
TRI CITIES     PTSUNNY   97  60  29 CALM      29.99F HX  97
ELIZABETHTON   SUNNY     95  63  34 VRB6      29.98F HX  96
$$

TNZ012-013-036-069-073-074-232200-
CENTRAL EAST TENNESSEE

CITY           SKY/WX    TMP DP  RH WIND       PRES   REMARKS
KNOXVILLE      CLOUDY    89  69  51 NW8       29.98R HX  93
OAK RIDGE      CLOUDY    91  71  51 N5        29.99R HX  97
GATLINBURG       N/A     93  64  38 VRB7      29.95F HX  95
MORRISTOWN     SUNNY     95  63  34 VRB6      29.98S HX  96
$$

TNZ083-085-099-232200-
SOUTHEAST TENNESSEE

CITY           SKY/WX    TMP DP  RH WIND       PRES   REMARKS
CHATTANOOGA    PTSUNNY   85  68  56 S13G24    30.00R
$$

SKY/WX REPORTED AS FAIR MEANS FEW OR NO CLOUDS BELOW
12 THOUSAND FEET.





USA.gov is the U.S. government's official web portal to all federal, state and local government web resources and services.